www.pogodaiklimat.ru
ПОГОДА в Кресвелле
Время
и дата
16:55 27.05
17:15 27.05
17:35 27.05
17:55 27.05
18:15 27.05
18:35 27.05
18:55 27.05
19:15 27.05
19:35 27.05
19:55 27.05
20:15 27.05
20:35 27.05
20:55 27.05
21:15 27.05
21:35 27.05
21:55 27.05
22:15 27.05
22:35 27.05
22:55 27.05
23:15 27.05
23:35 27.05
23:55 27.05
00:15 28.05
00:35 28.05
00:55 28.05
01:15 28.05
01:35 28.05
01:55 28.05
02:15 28.05
02:35 28.05
02:55 28.05
03:15 28.05
03:35 28.05
03:55 28.05
04:15 28.05
04:35 28.05
04:55 28.05
05:15 28.05
05:35 28.05
05:55 28.05
06:15 28.05
06:35 28.05
06:55 28.05
07:15 28.05
07:35 28.05
07:55 28.05
08:15 28.05
08:35 28.05
Ветер
(напр.,м/с)
Видим. Явления Облачность Т
(С)
Тd
(С)
f
(%)
Тe
(С)
Тes
(С)
Комфортность P
(гПа)
Po
(гПа)
Тmin
(С)
Tmax
(С)
R
(мм)
R24
(мм)
S
(см)
С 4 16 км ясно +24.0 +11.0 44 +25 +31 комфорт 997.5
нст 3 16 км ясно +23.0 +11.0 47 +25 +29 комфорт 997.2
СЗ 4 14 км ясно +23.0 +11.0 47 +25 +28 комфорт 997.2
СЗ 4 16 км ясно +23.0 +11.0 47 +25 +28 комфорт 997.5
СЗ 3 16 км ясно +23.0 +12.0 50 +26 +27 жарко 997.5
СЗ 3 16 км ясно +22.0 +11.0 50 +24 +26 комфорт 997.5
СЗ 3 н/о ясно +21.0 +11.0 53 +23 +25 комфорт 997.5
СЗ 2 16 км ясно +21.0 +10.0 49 +23 +24 комфорт 997.5
штиль 0 16 км ясно +18.0 +11.0 64 +18 +18 997.5
штиль 0 16 км ясно +17.0 +10.0 63 +17 +17 997.9
штиль 0 16 км ясно +17.0 +10.0 63 +17 +17 998.2
СЗ 3 16 км ясно +17.0 +11.0 68 +17 +17 998.2
СЗ 3 16 км ясно +17.0 +11.0 68 +17 +17 998.5
штиль 0 16 км ясно +16.0 +11.0 72 +16 +16 998.9
СЗ 2 16 км ясно +16.0 +11.0 72 +16 +16 998.9
З 2 16 км ясно +15.0 +11.0 77 +15 +15 998.9
ЮЗ 3 16 км ясно +15.0 +11.0 77 +14 +14 998.9
ЮЗ 3 16 км ясно +14.0 +10.0 77 +13 +13 999.2
ЮЗ 3 16 км ясно +14.0 +10.0 77 +13 +13 999.2
ЮЗ 3 16 км 5/5 1650 м +14.0 +10.0 77 +13 +13 999.5
ЮЗ 4 16 км 10/10 1800 м +13.0 +10.0 82 +11 +11 999.5
ЮЗ 4 16 км н/о +13.0 +10.0 82 +11 +11 999.5
ЮЗ 4 16 км 10/10 1800 м +13.0 +10.0 82 +11 +11 999.2
ЮЗ 4 16 км 8/8 1650 м +13.0 +9.0 77 +11 +11 999.5
ЮЗ 3 16 км 5/5 1650 м +12.0 +9.0 82 +10 +10 999.5
ЮЗ 4 16 км 8/8 1500 м +12.0 +9.0 82 +10 +10 999.9
ЮЗ 4 16 км 10/10 1650 м +12.0 +9.0 82 +10 +10 999.9
ЮЗ 3 16 км 10/10 1500 м +11.0 +9.0 87 +9 +9 1000.2
нст 3 16 км 10/10 1500 м +11.0 +9.0 87 +9 +9 1000.2
ЮЗ 5 16 км 10/10 1500 м +11.0 +9.0 87 +8 +8 1000.2
ЮЗ 4 16 км 10/10 1500 м +11.0 +9.0 87 +9 +9 1000.2
ЮЗ 4 16 км 10/10 1500 м +11.0 +8.0 82 +9 +9 1000.2
ЮЗ 3 16 км 10/10 1230 м +11.0 +9.0 87 +9 +9 1000.5
ЮЗ 3 16 км 10/10 1230 м +11.0 +8.0 82 +9 +9 1000.5
Ю 3 16 км 8/8 1230 м +10.0 +8.0 87 +8 +8 1000.5
Ю 3 16 км 8/8 750 м +10.0 +8.0 87 +8 +8 1000.5
Ю 3 16 км 5/5 570 м +10.0 +8.0 87 +8 +8 1000.9
Ю 3 16 км 8/8 600 м +10.0 +8.0 87 +8 +8 1000.9
Ю 3 16 км 8/8 630 м +11.0 +8.0 82 +9 +9 1001.2
ЮЗ 3 16 км 5/5 660 м +11.0 +9.0 87 +9 +9 1001.2
ЮЗ 3 16 км 8/8 720 м +11.0 +8.0 82 +9 +9 1001.5
Ю 3 16 км 10/10 750 м +12.0 +9.0 82 +10 +10 1001.5
Ю 4 16 км 10/10 780 м +12.0 +8.0 76 +10 +10 1001.5
Ю 3 16 км 10/10 750 м +13.0 +9.0 77 +12 +12 1001.5
нст 2 16 км 10/10 720 м +13.0 +9.0 77 +12 +12 1001.9
З 2 16 км 10/10 690 м +13.0 +8.0 72 +12 +12 1001.9
З 3 16 км 10/10 810 м +14.0 +8.0 67 +13 +13 1002.2
нст 2 16 км 10/10 870 м +14.0 +8.0 67 +14 +14 1001.9
Местоположение метеостанции Hobby Field Airport: широта 43.9308 долгота -123.0067 высота над уровнем моря 161 м.
В архиве по умолчанию представлена погода в Кресвелле за последние 1-2 суток. Обновление информации о фактической погоде в базе происходит ежечасно! Архивные данные за месяц целиком и за предыдущие месяцы Вы можете получить, выбрав интересующий диапазон дат из раскрывающегося списка и нажав кнопку "Ввод!".
Внимание! Архив погоды МЕТАР в базе сайта по станциям, не включенным в климатический монитор, хранится не более 60 дней. Нет смысла пытаться выбрать более раннюю дату.
*Определитесь, кто Вы:
Внимание! Время в таблицах - местное (без учета летнего времени). Для получения всемирного времени необходимо вычесть поправку, которая равна -8 ч.
Смотрите также архив погоды в соседних городах и на ближайших метеорологических станциях:
Партнеры нашего сайта:      
Пояснения к столбцам:
  • Ветер - указаны скорость ветра в м/с - средняя за 10 мин, порывы в срок и между сроками (в фигурных скобках) и направление, откуда дует ветер: С - северный,
  • СВ - северо-восточный, В - восточный, ЮВ - юго-восточный, Ю - южный, ЮЗ - юго-западный, З - западный, СЗ - северо-западный.
  • Видимость - горизонтальная дальность видимости в метрах или километрах. При видимости от 1 до 10 км при отсутствии осадков обычно наблюдается дымка, при ухудшении видимости до 1 км и менее - туман. В сухую погоду видимость может ухудшаться дымом, пылью или мглою.
  • Явления - указаны атмосферные явления, наблюдавшиеся в срок или в последний час перед сроком; фигурными скобками обозначены явления, наблюдавшиеся между сроками (за 1-3 часа до срока); квадратными скобками обозначены град или гололедные отложения с указанием их диаметра в мм.
  • Облачность - указаны через наклонную черту общая и нижняя облачность в баллах и высота нижней границы облаков в метрах; квадратными скобками обозначены формы облаков: Ci - перистые, Cs - перисто-слоистые, Cc - перисто-кучевые, Ac - высококучевые, As - высокослоистые, Sc - слоисто-кучевые, Ns - слоисто-дождевые, Cu - кучевые, Cb - кучево-дождевые. Подробнее классификацию облаков см. в Атласе облаков (PDF).
  • T - Температура воздуха - температура, измеренная на высоте 2 м над землей.
  • Td - Температура точки росы - температура, при понижении до которой содержащийся в воздухе водяной пар достигнет насыщения.
  • f - Относительная влажность воздуха - влажноcть воздуха, измеренная на высоте 2 м над землей.
  • Te - Эффективная температура - температура, которую ощущает одетый по сезону человек в тени. Характеристика душности погоды. При расчете учитывается влияние влажности воздуха и скорости ветра на теплоощущения человека.
  • Tes - Эффективная температура на солнце - температура, которую ощущает человек, с поправкой на солнечный нагрев. Характеристика знойности погоды. Зависит от высоты солнца над горизонтом, облачности и скорости ветра. Ночью, в пасмурную погоду, а также при ветре 12 м/с и более поправка равна нулю.
  • P - Атмосферное давление - приведенное к уровню моря атмосферное давление.
  • Po - Атмосферное давление - измеренное на уровне метеостанции атмосферное давление.
  • Tmin - Минимальная температура - минимум температуры воздуха на высоте 2 м над землей.
  • Tmax - Максимальная температура - максимум температуры воздуха на высоте 2 м над землей.
  • R - Количество осадков - Количество выпавших осадков за период времени, мм. При наведении курсора мыши на число - период времени, за который выпало указанное количество осадков.
  • R24 - Количество осадков - Количество выпавших осадков за 24 часа, мм.
  • S - Снежный покров - Высота снежного покрова, см. При наведении курсора мыши на число - состояние снежного покрова и степень покрытия местности в баллах.